www.pogodaiklimat.ru

Погода и климат >> Архив погоды >> Россия >> Приморский край >> Пограничный


АРХИВ ПОГОДЫ в Пограничном

Время (UTC), дата Ветер
(напр.,м/с)
 
Видим.   Явления Облачность Т
(С)
Тd
(С)
f
(%)
Тe
(С)
Тes
(С)
Комфортность P
(гПа)
Po
(гПа)
Тmin
(С)
Tmax
(С)
R
(мм)
R24
(мм)
S
(см)
06 12.09 В 2 50 км 6/0
[Ci]
+21.8 +8.9 44 +23 +29 комфорт 1018.3 993.1
09 12.09 СВ 2 50 км 8/0
[Ac lent Ci]
+18.1 +11.5 65 +19 +19 1018.3 992.8 +22.0
12 12.09 З 3 20 км 8/0
[Ac lent Cs]
+11.7 +10.2 91 +10 +10 1019.6 993.4
18 12.09 З 2 20 км ясно +7.7 +7.2 97 +5 +5 1017.8 991.3
21 12.09 З 1 50 км 3/0
[Ci fib]
+6.5 +6.3 99 +5 +5 1018.0 991.4 +6.0
00 13.09 ЮВ 2 50 км 10/1 600 м
[Cu hum Ci fib]
+14.5 +10.6 77 +14 +18 1016.3 990.5
03 13.09 Ю 4 50 км 10/1 600 м
[Cu hum As trans Cs]
+20.7 +12.9 61 +23 +27 комфорт 1013.6 988.4
06 13.09 ЮВ 4 50 км 10/5 600 м
[Cb cap As trans Ci sp]
+22.2 +13.4 57 +25 +26 комфорт 1011.2 986.2
09 13.09 ЮВ 3 50 км 10/6 600 м
[Cb cap Ac trans Ci sp]
+17.6 +13.9 79 +18 +18 1011.5 986.1 +22.9
12 13.09 Ю 2 20 км 10/8 600 м
[Cb cap Ac trans Ci sp]
+17.3 +13.5 78 +18 +18 1010.8 985.4
15 13.09 Ю 3 20 км 10/9 600 м
[Cb cap Ac trans Ci sp]
+15.9 +12.8 82 +15 +15 1009.2 983.8
18 13.09 Ю 2 20 км {ливн. осадки} 10/9 600 м
[Cb cap Ac trans Ci sp]
+15.1 +14.3 95 +15 +15 1009.0 983.5
21 13.09 З 1 50 км 10/10 600 м
[Sc]
+14.8 +14.4 97 +15 +15 1010.2 984.6 +14.6 0.4
00 14.09 С 2 50 км {дождь} 10/10 600 м
[Sc]
+15.9 +13.7 87 +16 +16 1012.0 986.5
03 14.09 С 2 50 км 9/8 600 м
[Cb cap Cc]
+19.4 +12.7 65 +21 +23 комфорт 1011.8 986.5
06 14.09 С 3 50 км 3/3 600 м
[Cu med, cong]
+22.1 +7.1 38 +23 +27 комфорт 1010.9 985.8
09 14.09 СЗ 2 50 км ясно +18.9 +8.4 50 +20 +20 1012.5 987.1 +22.3 1
12 14.09 З 3 20 км ясно +11.2 +8.2 82 +9 +9 1015.6 989.5
15 14.09 З 3 20 км ясно +8.5 +6.9 90 +6 +6 1016.3 989.9
18 14.09 З 3 20 км ясно +7.4 +6.2 92 +4 +4 1016.4 989.9
21 14.09 З 2 50 км ясно +6.8 +5.7 93 +4 +4 1016.4 989.9 +6.2
00 15.09 З 2 50 км 1/1 600 м
[Sc]
+16.7 +9.9 64 +17 +22 1015.7 990.1
03 15.09 Ю 3 50 км 3/0
[Ci fib]
+21.2 +4.6 34 +22 +31 комфорт 1013.7 988.5
06 15.09 ЮВ 2 50 км ясно +22.5 +6.2 35 +23 +30 комфорт 1011.0 986.0
09 15.09 ЮВ 2 50 км 3/0
[Ac lent Ci fib]
+18.6 +7.8 49 +20 +20 1010.8 985.5 +22.6
12 15.09 ЮЗ 1 20 км 6/0
[Ac lent Ci fib]
+12.4 +8.8 79 +12 +12 1011.3 985.4
15 15.09 З 3 20 км 8/0
[Ci fib]
+9.5 +8.0 90 +7 +7 1011.8 985.6
18 15.09 ЮВ 2 20 км 4/0
[Ci fib]
+9.7 +7.1 84 +8 +8 1011.5 985.4
21 15.09 З 2 50 км 6/3 600 м
[Sc Ci sp]
+7.9 +7.0 94 +6 +6 1012.7 986.4 +7.6
00 16.09 З 2 50 км 1/0
[Ci sp]
+18.4 +10.6 60 +19 +24 1013.1 987.7
03 16.09 З 2 50 км 4/4 600 м
[Cu hum]
+21.9 +8.1 41 +23 +30 комфорт 1012.4 987.3
06 16.09 З 3 50 км 3/3 600 м
[Cu hum]
+21.9 +4.3 32 +22 +26 комфорт 1012.0 986.9
09 16.09 З 2 50 км ясно +16.6 +3.9 43 +17 +17 1013.6 988.0 +22.6
12 16.09 З 2 20 км ясно +10.0 +2.9 61 +9 +9 1016.5 990.3
15 16.09 З 1 20 км ясно +5.1 +2.3 82 +4 +4 1018.5 991.7
18 16.09 З 2 20 км ясно +4.7 +1.9 82 +2 +2 1019.1 992.3
21 16.09 З 2 50 км ясно +2.9 +1.4 90 -0 -0 1019.4 992.4 +2.5
00 17.09 З 1 50 км ясно +13.8 +3.1 48 +14 +20 1018.3 992.4
03 17.09 Ю 1 50 км ясно +17.9 -0.1 30 +19 +32 опасность
простуды
1016.2 990.6
06 17.09 ЮВ 3 50 км ясно +18.5 +3.4 37 +19 +24 1013.5 988.0
09 17.09 ЮВ 2 50 км 3/0
[Ci fib]
+15.3 +5.7 53 +15 +15 1012.4 986.7 +18.9
12 17.09 З 3 20 км ясно +8.1 +6.1 87 +5 +5 1012.0 985.7
15 17.09 З 3 20 км 3/0
[Ci fib]
+5.6 +5.1 97 +2 +2 1009.4 982.9
18 17.09 З 4-12
{12}
20 км в посл. час ливневой дождь 9/8 600 м
[Cb cap Ac lent Ci fib]
+10.2 +8.8 91 +7 +7 1008.5 982.5
21 17.09 З 2
{13}
50 км {ливн. осадки} 3/3 600 м
[Cb cap]
+8.1 +3.2 71 +6 +6 1011.7 985.4 +5.2 1
00 18.09 З 6-15
{15}
50 км {ливн. осадки} 3/3 600 м
[Cu med, cong]
+9.6 +0.4 53 +6 +8 1014.1 987.8
03 18.09 З 6-15
{18}
50 км 6/6 600 м
[Cu med, cong]
+12.1 -1.4 39 +10 +12 1015.1 989.1
06 18.09 З 5-15
{18}
50 км 8/5 600 м
[Cb cap Ci fib]
+11.9 -0.8 41 +10 +11 1014.4 988.4
09 18.09 З 4-10
{15}
50 км 4/3 600 м
[Cu med, cong Ac lent]
+9.7 -1.8 45 +7 +7 1015.1 988.8 +13.1
12 18.09 ЮЗ 2
{10}
20 км ясно +6.4 -0.7 60 +5 +5 1016.6 990.0
15 18.09 ЮЗ 2 20 км ясно +5.3 -0.7 65 +3 +3 1016.2 989.5
18 18.09 З 2 20 км 6/0
[Ac trans Ci fib]
+6.4 -1.1 59 +5 +5 1014.6 988.0
21 18.09 ЮЗ 3 50 км 3/3 600 м
[Sc]
+6.8 -0.6 59 +4 +4 1014.1 987.6 +5.2
00 19.09 З 5-11
{12}
50 км ясно +12.5 -2.1 36 +11 +13 1013.2 987.2
03 19.09 З 5-12
{13}
50 км ясно +15.8 -4.5 24 +15 +21 1013.2 987.5

 

Местоположение метеостанции Пограничный (Приморский край, Россия): широта 44.40 долгота 131.30 высота над уровнем моря 211 м.

В архиве по умолчанию представлена погода в Пограничном за последнюю неделю. Архивные данные за месяц целиком и за предыдущие месяцы, начиная с января 2011 года, Вы можете получить, выбрав интересующий диапазон дат из раскрывающегося списка и нажав кнопку "Ввод!".


*Определитесь, кто Вы:
робот инопланетянин человек

Внимание! Время в таблицах - всемирное. Для получения местного времени необходимо прибавить поправку, которая равна 10 ч.

Смотрите также архив погоды в соседних городах и на ближайших метеорологических станциях:

Погода в Суйфэньхэ (Хэйлунцзян, Китай) (12 км)
Погода в Полтавке (Приморский край, Россия) (41 км)
Погода в Хороле (Приморский край, Россия) (56 км)
Погода в Астраханке (Приморский край, Россия) (66 км)
Погода в Тимирязевском (Приморский край, Россия) (75 км)
Погода в Цзиси (Хэйлунцзян, Китай) (102 км)
Погода в Турьем Роге (Приморский край, Россия) (105 км)
Погода в Спасск-Дальнем (Приморский край, Россия) (122 км)
Погода в Барабаше (Приморский край, Россия) (134 км)
Погода в Муданьцзяне (Хэйлунцзян, Китай) (136 км)

Пояснения к столбцам:

Ветер - указаны скорость ветра в м/с - средняя за 10 мин, порывы в срок и между сроками (в фигурных скобках) и направление, откуда дует ветер: С - северный, СВ - северо-восточный, В - восточный, ЮВ - юго-восточный, Ю - южный, ЮЗ - юго-западный, З - западный, СЗ - северо-западный.
Видимость - горизонтальная дальность видимости в метрах или километрах. При видимости от 1 до 10 км при отсутствии осадков обычно наблюдается дымка, при ухудшении видимости до 1 км и менее - туман. В сухую погоду видимость может ухудшаться дымом, пылью или мглою.
Явления - указаны атмосферные явления, наблюдавшиеся в срок или в последний час перед сроком; фигурными скобками обозначены явления, наблюдавшиеся между сроками (за 1-3 часа до срока); квадратными скобками обозначены град или гололедные отложения с указанием их диаметра в мм.
Облачность - указаны через наклонную черту общая и нижняя облачность в баллах и высота нижней границы облаков в метрах; квадратными скобками обозначены формы облаков: Ci - перистые, Cs - перисто-слоистые, Cc - перисто-кучевые, Ac - высококучевые, As - высокослоистые, Sc - слоисто-кучевые, Ns - слоисто-дождевые, Cu - кучевые, Cb - кучево-дождевые. Подробнее классификацию облаков см. в Атласе облаков (PDF).
T - Температура воздуха - температура, измеренная на высоте 2 м над землей.
Td - Температура точки росы - температура, при понижении до которой содержащийся в воздухе водяной пар достигнет насыщения.
f - Относительная влажность воздуха - влажноcть воздуха, измеренная на высоте 2 м над землей.
Te - Эффективная температура - температура, которую ощущает одетый по сезону человек в тени. Характеристика душности погоды. При расчете учитывается влияние влажности воздуха и скорости ветра на теплоощущения человека.
Tes - Эффективная температура на солнце - температура, которую ощущает человек, с поправкой на солнечный нагрев. Характеристика знойности погоды. Зависит от высоты солнца над горизонтом, облачности и скорости ветра. Ночью, в пасмурную погоду, а также при ветре 12 м/с и более поправка равна нулю.
P - Атмосферное давление - приведенное к уровню моря атмосферное давление.
Po - Атмосферное давление - измеренное на уровне метеостанции атмосферное давление.
Tmin - Минимальная температура - минимум температуры воздуха на высоте 2 м над землей.
Tmax - Максимальная температура - максимум температуры воздуха на высоте 2 м над землей.
R - Количество осадков - Количество выпавших осадков за период времени, мм. При наведении курсора мыши на число - период времени, за который выпало указанное количество осадков.
R24 - Количество осадков - Количество выпавших осадков за 24 часа, мм.
S - Снежный покров - Высота снежного покрова, см. При наведении курсора мыши на число - состояние снежного покрова и степень покрытия местности в баллах.